• In Uzbekistan
  • List of Countries
  • For 7 days
  • Water Temperature
  • Satellite Maps
  • Weather Map
  • Weather Widgets
  • user-avatar
    Login

    Hourly Weather Kimch'aek

    Today, 17 January, Thursday

    Time Temperature Precipitation Wind Pressure Humidity
    00:00 -4°C° 0 mm 2 mps 762 mmHg 31%
    01:00 -5°C° 0 mm 2 mps 762 mmHg 33%
    02:00 -5°C° 0 mm 2 mps 762 mmHg 34%
    03:00 -5°C° 0 mm 2 mps 761 mmHg 36%
    04:00 -6°C° 0 mm 2 mps 761 mmHg 37%
    05:00 -6°C° 0 mm 2 mps 762 mmHg 38%
    06:00 -6°C° 0 mm 2 mps 762 mmHg 38%
    07:00 -6°C° 0 mm 2 mps 762 mmHg 38%
    08:00 -5°C° 0 mm 2 mps 762 mmHg 38%
    09:00 -5°C° 0 mm 3 mps 762 mmHg 36%
    10:00 -4°C° 0 mm 3 mps 762 mmHg 31%
    11:00 -2°C° 0 mm 3 mps 762 mmHg 27%
    12:00 0°C° 0 mm 3 mps 762 mmHg 22%
    13:00 0°C° 0 mm 3 mps 762 mmHg 21%
    14:00 0°C° 0 mm 3 mps 762 mmHg 20%
    15:00 +1°C° 0 mm 3 mps 762 mmHg 19%
    16:00 0°C° 0 mm 3 mps 763 mmHg 21%
    17:00 -2°C° 0 mm 2 mps 764 mmHg 22%
    18:00 -3°C° 0 mm 2 mps 764 mmHg 24%
    19:00 -3°C° 0 mm 2 mps 765 mmHg 23%
    20:00 -4°C° 0 mm 2 mps 766 mmHg 23%
    21:00 -4°C° 0 mm 2 mps 766 mmHg 22%
    22:00 -5°C° 0 mm 3 mps 767 mmHg 23%
    23:00 -6°C° 0 mm 3 mps 767 mmHg 23%

    Tomorrow, 18 January, Friday

    Time Temperature Precipitation Wind Pressure Humidity
    00:00 -7°C° 0 mm 4 mps 767 mmHg 23%
    01:00 -7°C° 0 mm 4 mps 767 mmHg 24%
    02:00 -7°C° 0 mm 4 mps 768 mmHg 24%
    03:00 -7°C° 0 mm 4 mps 768 mmHg 24%
    04:00 -7°C° 0 mm 3 mps 768 mmHg 23%
    05:00 -7°C° 0 mm 3 mps 768 mmHg 23%
    06:00 -7°C° 0 mm 3 mps 768 mmHg 22%
    07:00 -5°C° 0 mm 2 mps 768 mmHg 22%
    08:00 -5°C° 0 mm 2 mps 768 mmHg 21%
    09:00 -5°C° 0 mm 2 mps 768 mmHg 21%
    10:00 -3°C° 0 mm 2 mps 768 mmHg 21%
    11:00 +1°C° 0 mm 1 mps 768 mmHg 21%
    12:00 +3°C° 0 mm 1 mps 768 mmHg 21%
    13:00 +3°C° 0 mm 1 mps 767 mmHg 23%
    14:00 +2°C° 0 mm 2 mps 767 mmHg 25%
    15:00 +2°C° 0 mm 2 mps 766 mmHg 28%
    16:00 +2°C° 0 mm 1 mps 767 mmHg 34%
    17:00 +1°C° 0 mm 1 mps 767 mmHg 41%
    18:00 0°C° 0 mm 1 mps 767 mmHg 48%
    19:00 0°C° 0 mm 1 mps 767 mmHg 46%
    20:00 0°C° 0 mm 1 mps 767 mmHg 45%
    21:00 -1°C° 0 mm 1 mps 767 mmHg 44%
    22:00 -1°C° 0 mm 1 mps 767 mmHg 44%
    23:00 -1°C° 0 mm 1 mps 767 mmHg 44%

    Day after tomorrow, 19 January, Saturday

    Time Temperature Precipitation Wind Pressure Humidity
    00:00 -1°C° 0 mm 1 mps 767 mmHg 44%
    01:00 -1°C° 0 mm 1 mps 767 mmHg 44%
    02:00 -1°C° 0 mm 1 mps 767 mmHg 43%
    03:00 -3°C° 0 mm 2 mps 767 mmHg 43%
    04:00 -4°C° 0 mm 2 mps 767 mmHg 42%
    05:00 -4°C° 0 mm 2 mps 766 mmHg 41%
    06:00 -4°C° 0 mm 2 mps 766 mmHg 40%
    07:00 -4°C° 0 mm 2 mps 766 mmHg 38%
    08:00 -3°C° 0 mm 2 mps 766 mmHg 36%
    09:00 -3°C° 0 mm 2 mps 766 mmHg 35%
    10:00 +1°C° 0 mm 1 mps 766 mmHg 33%
    11:00 +2°C° 0 mm 1 mps 765 mmHg 31%
    12:00 +4°C° 0 mm 1 mps 765 mmHg 29%
    13:00 +4°C° 0 mm 1 mps 764 mmHg 30%
    14:00 +4°C° 0 mm 1 mps 764 mmHg 31%
    15:00 +3°C° 0 mm 2 mps 763 mmHg 32%
    16:00 +2°C° 0 mm 2 mps 763 mmHg 36%
    17:00 +2°C° 0 mm 1 mps 763 mmHg 40%
    18:00 +1°C° 0 mm 1 mps 763 mmHg 44%
    19:00 +1°C° 0 mm 1 mps 763 mmHg 44%
    20:00 +1°C° 0 mm 1 mps 763 mmHg 44%
    21:00 -2°C° 0 mm 2 mps 763 mmHg 44%
    22:00 -2°C° 0 mm 2 mps 763 mmHg 42%
    23:00 -2°C° 0 mm 3 mps 763 mmHg 41%

    20 January, Sunday

    Time Temperature Precipitation Wind Pressure Humidity
    00:00 -2°C° 0 mm 3 mps 763 mmHg 39%
    01:00 -4°C° 0 mm 3 mps 763 mmHg 38%
    02:00 -4°C° 0 mm 4 mps 763 mmHg 37%
    03:00 -5°C° 0 mm 4 mps 763 mmHg 36%
    04:00 -5°C° 0 mm 4 mps 763 mmHg 38%
    05:00 -7°C° 0 mm 4 mps 763 mmHg 40%
    06:00 -7°C° 0 mm 4 mps 763 mmHg 41%
    07:00 -7°C° 0 mm 4 mps 763 mmHg 38%
    08:00 -7°C° 0 mm 4 mps 764 mmHg 36%
    09:00 -7°C° 0 mm 4 mps 764 mmHg 33%
    10:00 -5°C° 0 mm 4 mps 764 mmHg 29%
    11:00 -4°C° 0 mm 4 mps 764 mmHg 25%
    12:00 -4°C° 0 mm 4 mps 765 mmHg 21%
    13:00 -3°C° 0 mm 4 mps 764 mmHg 20%
    14:00 -2°C° 0 mm 3 mps 764 mmHg 19%
    15:00 -2°C° 0 mm 3 mps 764 mmHg 19%
    16:00 -4°C° 0 mm 3 mps 765 mmHg 21%
    17:00 -4°C° 0 mm 3 mps 765 mmHg 24%
    18:00 -5°C° 0 mm 3 mps 765 mmHg 27%
    19:00 -5°C° 0 mm 3 mps 766 mmHg 28%
    20:00 -5°C° 0 mm 3 mps 766 mmHg 29%
    21:00 -6°C° 0 mm 3 mps 766 mmHg 30%
    22:00 -6°C° 0 mm 3 mps 766 mmHg 32%
    23:00 -5°C° 0 mm 2 mps 766 mmHg 33%

    21 January, Monday

    Time Temperature Precipitation Wind Pressure Humidity
    00:00 -5°C° 0 mm 2 mps 765 mmHg 35%
    01:00 -6°C° 0 mm 2 mps 765 mmHg 36%
    02:00 -6°C° 0 mm 2 mps 765 mmHg 37%
    03:00 -6°C° 0 mm 2 mps 765 mmHg 38%
    04:00 -6°C° 0 mm 2 mps 764 mmHg 38%
    05:00 -6°C° 0 mm 2 mps 764 mmHg 39%
    06:00 -6°C° 0 mm 2 mps 764 mmHg 39%
    07:00 -6°C° 0 mm 2 mps 764 mmHg 38%
    08:00 -5°C° 0 mm 2 mps 764 mmHg 37%
    09:00 -5°C° 0 mm 2 mps 764 mmHg 35%
    10:00 -3°C° 0 mm 2 mps 763 mmHg 31%
    11:00 -1°C° 0 mm 2 mps 762 mmHg 26%
    12:00 +3°C° 0 mm 1 mps 762 mmHg 21%
    13:00 +2°C° 0 mm 2 mps 761 mmHg 22%
    14:00 +3°C° 0 mm 2 mps 761 mmHg 22%
    15:00 +3°C° 0 mm 2 mps 760 mmHg 22%
    16:00 +2°C° 0 mm 2 mps 760 mmHg 27%
    17:00 +1°C° 0 mm 1 mps 760 mmHg 33%
    18:00 0°C° 0 mm 1 mps 760 mmHg 38%
    19:00 -2°C° 0 mm 2 mps 760 mmHg 40%
    20:00 -2°C° 0 mm 2 mps 760 mmHg 42%
    21:00 -2°C° 0 mm 3 mps 761 mmHg 44%
    22:00 -3°C° 0 mm 4 mps 761 mmHg 45%
    23:00 -3°C° 0 mm 4 mps 760 mmHg 47%

    22 January, Tuesday

    Time Temperature Precipitation Wind Pressure Humidity
    00:00 -4°C° 0 mm 5 mps 760 mmHg 48%
    01:00 -4°C° 0.1 mm 4 mps 760 mmHg 51%
    02:00 -4°C° 0.1 mm 4 mps 760 mmHg 55%
    03:00 -4°C° 0.1 mm 3 mps 761 mmHg 58%
    04:00 -4°C° 0 mm 3 mps 761 mmHg 59%
    05:00 -5°C° 0 mm 3 mps 761 mmHg 59%
    06:00 -5°C° 0 mm 3 mps 761 mmHg 60%
    07:00 -5°C° 0 mm 3 mps 762 mmHg 55%
    08:00 -5°C° 0 mm 3 mps 762 mmHg 51%
    09:00 -5°C° 0 mm 3 mps 763 mmHg 47%
    10:00 -3°C° 0 mm 2 mps 763 mmHg 40%
    11:00 -2°C° 0 mm 2 mps 763 mmHg 33%
    12:00 0°C° 0 mm 1 mps 763 mmHg 25%
    13:00 +1°C° 0 mm 1 mps 763 mmHg 24%
    14:00 +1°C° 0 mm 1 mps 762 mmHg 22%
    15:00 +1°C° 0 mm 1 mps 762 mmHg 20%
    16:00 0°C° 0 mm 1 mps 763 mmHg 22%
    17:00 -1°C° 0 mm 1 mps 763 mmHg 25%
    18:00 -2°C° 0 mm 1 mps 764 mmHg 27%
    19:00 -2°C° 0 mm 1 mps 764 mmHg 27%
    20:00 -5°C° 0 mm 2 mps 765 mmHg 27%
    21:00 -5°C° 0 mm 2 mps 765 mmHg 27%
    22:00 -6°C° 0 mm 3 mps 765 mmHg 26%
    23:00 -7°C° 0 mm 3 mps 766 mmHg 26%
    Show more